This demonstration page uses our WeatherBlox Daily Observations layout. Learn more.

Left ArrowRight Arrow

41.55636, -103.73856

Hourly Observations for January 27, 2021

Temp ( °F °C ) Dew Point ( °F °C ) Humidity (%) Winds ( mph kmh ) Pressure ( in mb ) Visibility ( mi km ) Precip ( " mm )
12:56 am 00:56 Mostly Cloudy 12 -11.2 8 -13.2 85 85 SSW 17 28 30.19 1022 10 16.0934 0 0
1:56 am 01:56 Clear 11 -11.6 7 -14.1 82 82 SSW 17 28 30.19 1023 10 16.0934 0 0
2:56 am 02:56 Clear 10 -12.5 5 -14.9 82 82 SSW 16 26 30.21 1023 10 16.0934 0 0
3:56 am 03:56 Clear 9 -12.7 5 -14.8 84 84 SSW 20 31 30.22 1023 10 16.0934 0 0
4:56 am 04:56 Clear 9 -12.7 5 -15 83 83 SW 9 15 30.24 1024 10 16.0934 0 0
5:56 am 05:56 Clear 9 -12.9 5 -15.2 83 83 SW 13 20 30.26 1025 10 16.0934 0 0
6:56 am 06:56 Clear 10 -12.5 5 -15.2 80 80 SSW 13 20 30.28 1026 10 16.0934 0 0
7:56 am 07:56 Sunny 13 -10.7 7 -13.9 78 78 SW 14 22 30.29 1026 10 16.0934 0 0
8:56 am 08:56 Sunny 18 -7.6 10 -12 71 71 SSW 12 19 30.31 1027 10 16.0934 0 0
9:56 am 09:56 Sunny 24 -4.2 16 -8.7 71 71 SW 14 22 30.29 1026 10 16.0934 0 0
10:56 am 10:56 Sunny 27 -2.6 18 -7.8 68 68 SSW 23 37 30.27 1025 10 16.0934 0 0
11:56 am 11:56 Sunny 30 -1.2 20 -6.9 66 66 SW 16 26 30.25 1024 10 16.0934 0 0
12:56 pm 12:56 Sunny 34 0.9 21 -6 60 60 SSW 24 39 30.19 1023 10 16.0934 0 0
2:56 pm 14:56 Sunny 37 3 15 -9.5 40 40 SSW 23 37 30.19 1023 10 16.0934 0 0
3:56 pm 15:56 Sunny 33 0.6 18 -7.7 54 54 S 17 28 30.21 1023 10 16.0934 0 0
4:56 pm 16:56 Sunny 31 -0.7 18 -8 58 58 S 20 31 30.23 1024 10 16.0934 0 0
5:56 pm 17:56 Clear 30 -1 17 -8.6 57 57 SSW 24 39 30.23 1024 10 16.0934 0 0
6:56 pm 18:56 Clear 28 -2.3 17 -8.6 62 62 S 12 19 30.24 1024 10 16.0934 0 0
7:56 pm 19:56 Clear 26 -3.2 17 -8.1 69 69 E 3 6 30.25 1024 10 16.0934 0 0
8:56 pm 20:56 Clear 25 -3.9 18 -8 73 73 WSW 8 13 30.24 1024 10 16.0934 0 0
9:56 pm 21:56 Clear 22 -5.6 16 -9.1 77 77 NNW 6 9 30.24 1024 10 16.0934 0 0
10:56 pm 22:56 Clear 22 -5.8 14 -10 73 73 SSW 6 9 30.22 1024 10 16.0934 0 0
11:56 pm 23:56 Clear 24 -4.2 12 -11.2 59 59 SW 6 9 30.22 1023 10 16.0934 0 0

Powered by AerisWeather